ASTRA 2F

Last updated on Nov. 14, 2019, 4:21 a.m. UTC

1 38778U 12051A   19317.05379882  .00000164  00000-0  00000+0 0  9995
2 38778   0.0607 233.0796 0004609 358.0933 228.3190  1.00270937 26145
UTC
Height (km)
Latitude
Longitude
Inclination
Orbital Period
UTC large
Height (km)
Speed (km/s)
/
Latitude / Longitude
Inclination (degrees)
Orbital Period (minutes)
Azimuth
Elevation
Range (km)
Doppler Factor
iOS Compass Heading
iOS Angle

Next 30 passes for location: Hong Kong

Rise time Rise Azimuth (degrees) Set time Set Azimuth (degrees) Duration Max altitude (degrees)

No matching passes for this satellites